When you browse on this site, cookies collect data to enhance your experience and personalize the content and advertising you see.
Visit our Privacy Policy to learn more. By continuing to use the site, you agree to this use of cookies and data.
EN

Hourly Weather Pivnivshchyna

Today, 14 July, Tuesday

Time Temperature Precipitation Wind Pressure Humidity
00:00 +12°C° 0 mm 4 mps 748 mmHg 93%
01:00 +12°C° 0 mm 4 mps 747 mmHg 93%
02:00 +12°C° 0 mm 4 mps 748 mmHg 91%
03:00 +12°C° 0.1 mm 4 mps 747 mmHg 91%
04:00 +12°C° 0.1 mm 4 mps 747 mmHg 91%
05:00 +12°C° 0.1 mm 4 mps 747 mmHg 91%
06:00 +13°C° 0.3 mm 5 mps 747 mmHg 90%
07:00 +13°C° 0.3 mm 5 mps 747 mmHg 88%
08:00 +14°C° 0 mm 5 mps 747 mmHg 87%
09:00 +14°C° 0.5 mm 6 mps 747 mmHg 89%
10:00 +14°C° 0.5 mm 6 mps 746 mmHg 90%
11:00 +14°C° 0.5 mm 6 mps 746 mmHg 91%
12:00 +14°C° 0.4 mm 6 mps 746 mmHg 91%
13:00 +14°C° 0.4 mm 6 mps 746 mmHg 92%
14:00 +14°C° 0.4 mm 6 mps 746 mmHg 92%
15:00 +14°C° 0.4 mm 6 mps 746 mmHg 92%
16:00 +14°C° 0.4 mm 5 mps 746 mmHg 92%
17:00 +14°C° 0.4 mm 5 mps 745 mmHg 91%
18:00 +14°C° 0.1 mm 5 mps 745 mmHg 90%
19:00 +14°C° 0.1 mm 5 mps 746 mmHg 89%
20:00 +14°C° 0.1 mm 5 mps 746 mmHg 88%
21:00 +14°C° 0 mm 5 mps 745 mmHg 87%
22:00 +14°C° 0 mm 5 mps 745 mmHg 87%
23:00 +13°C° 0 mm 4 mps 745 mmHg 86%

Tomorrow, 15 July, Wednesday

Time Temperature Precipitation Wind Pressure Humidity
00:00 +13°C° 0 mm 5 mps 745 mmHg 85%
01:00 +13°C° 0 mm 5 mps 745 mmHg 84%
02:00 +13°C° 0 mm 5 mps 746 mmHg 83%
03:00 +13°C° 0 mm 5 mps 745 mmHg 84%
04:00 +13°C° 0 mm 5 mps 745 mmHg 85%
05:00 +13°C° 0 mm 5 mps 745 mmHg 85%
06:00 +13°C° 0 mm 5 mps 745 mmHg 82%
07:00 +14°C° 0 mm 6 mps 745 mmHg 78%
08:00 +15°C° 0 mm 7 mps 745 mmHg 74%
09:00 +16°C° 0 mm 7 mps 745 mmHg 70%
10:00 +17°C° 0 mm 7 mps 745 mmHg 65%
11:00 +18°C° 0 mm 8 mps 746 mmHg 61%
12:00 +18°C° 0 mm 7 mps 746 mmHg 62%
13:00 +17°C° 0 mm 6 mps 746 mmHg 64%
14:00 +17°C° 0 mm 6 mps 746 mmHg 66%
15:00 +16°C° 0 mm 6 mps 747 mmHg 68%
16:00 +15°C° 0 mm 6 mps 747 mmHg 70%
17:00 +14°C° 0 mm 6 mps 747 mmHg 72%
18:00 +14°C° 0 mm 5 mps 747 mmHg 72%
19:00 +13°C° 0 mm 4 mps 748 mmHg 72%
20:00 +13°C° 0 mm 3 mps 748 mmHg 73%
21:00 +12°C° 0 mm 3 mps 748 mmHg 74%
22:00 +12°C° 0 mm 3 mps 748 mmHg 75%
23:00 +13°C° 0 mm 2 mps 748 mmHg 76%

Day after tomorrow, 16 July, Thursday

Time Temperature Precipitation Wind Pressure Humidity
00:00 +11°C° 0 mm 3 mps 748 mmHg 76%
01:00 +11°C° 0 mm 3 mps 748 mmHg 75%
02:00 +11°C° 0 mm 4 mps 748 mmHg 74%
03:00 +11°C° 0 mm 3 mps 748 mmHg 78%
04:00 +11°C° 0 mm 3 mps 748 mmHg 82%
05:00 +10°C° 0 mm 3 mps 748 mmHg 86%
06:00 +12°C° 0 mm 3 mps 748 mmHg 83%
07:00 +14°C° 0 mm 3 mps 748 mmHg 79%
08:00 +17°C° 0 mm 3 mps 748 mmHg 76%
09:00 +18°C° 0 mm 3 mps 748 mmHg 71%
10:00 +20°C° 0 mm 3 mps 748 mmHg 65%
11:00 +21°C° 0 mm 3 mps 748 mmHg 60%
12:00 +22°C° 0 mm 3 mps 748 mmHg 57%
13:00 +22°C° 0 mm 3 mps 748 mmHg 55%
14:00 +24°C° 0 mm 3 mps 748 mmHg 52%
15:00 +24°C° 0 mm 2 mps 748 mmHg 54%
16:00 +24°C° 0 mm 2 mps 748 mmHg 56%
17:00 +24°C° 0 mm 2 mps 747 mmHg 57%
18:00 +22°C° 0 mm 1 mps 747 mmHg 63%
19:00 +20°C° 0 mm 1 mps 747 mmHg 69%
20:00 +18°C° 0 mm 1 mps 747 mmHg 75%
21:00 +16°C° 0 mm 1 mps 747 mmHg 77%
22:00 +16°C° 0 mm 1 mps 748 mmHg 78%
23:00 +15°C° 0 mm 1 mps 748 mmHg 79%

17 July, Friday

Time Temperature Precipitation Wind Pressure Humidity
00:00 +15°C° 0 mm 1 mps 748 mmHg 79%
01:00 +15°C° 0 mm 1 mps 748 mmHg 80%
02:00 +14°C° 0 mm 1 mps 748 mmHg 80%
03:00 +15°C° 0 mm 1 mps 748 mmHg 80%
04:00 +15°C° 0 mm 1 mps 748 mmHg 79%
05:00 +16°C° 0 mm 1 mps 748 mmHg 79%
06:00 +18°C° 0 mm 1 mps 748 mmHg 77%
07:00 +20°C° 0 mm 1 mps 748 mmHg 74%
08:00 +21°C° 0 mm 2 mps 748 mmHg 71%
09:00 +23°C° 0.7 mm 2 mps 748 mmHg 70%
10:00 +24°C° 0.7 mm 2 mps 748 mmHg 68%
11:00 +25°C° 0.7 mm 2 mps 749 mmHg 66%
12:00 +25°C° 1 mm 2 mps 748 mmHg 66%
13:00 +25°C° 1 mm 2 mps 748 mmHg 65%
14:00 +26°C° 1 mm 2 mps 748 mmHg 65%
15:00 +25°C° 1 mm 2 mps 748 mmHg 69%
16:00 +25°C° 1 mm 2 mps 748 mmHg 72%
17:00 +25°C° 1 mm 2 mps 748 mmHg 75%
18:00 +23°C° 0.1 mm 2 mps 748 mmHg 78%
19:00 +21°C° 0.1 mm 2 mps 748 mmHg 81%
20:00 +20°C° 0.1 mm 2 mps 749 mmHg 84%
21:00 +19°C° 0.2 mm 2 mps 749 mmHg 86%
22:00 +19°C° 0.2 mm 2 mps 749 mmHg 87%
23:00 +18°C° 0.2 mm 2 mps 749 mmHg 89%

18 July, Saturday

Time Temperature Precipitation Wind Pressure Humidity
00:00 +18°C° 0.4 mm 2 mps 749 mmHg 90%
01:00 +17°C° 0.4 mm 2 mps 749 mmHg 91%
02:00 +18°C° 0.4 mm 1 mps 750 mmHg 92%
03:00 +18°C° 0.3 mm 1 mps 750 mmHg 92%
04:00 +18°C° 0.3 mm 1 mps 750 mmHg 91%
05:00 +18°C° 0.3 mm 1 mps 750 mmHg 91%
06:00 +19°C° 0 mm 1 mps 750 mmHg 87%
07:00 +21°C° 0 mm 1 mps 750 mmHg 83%
08:00 +22°C° 0 mm 1 mps 751 mmHg 79%
09:00 +24°C° 0.3 mm 1 mps 751 mmHg 74%
10:00 +25°C° 0.3 mm 1 mps 751 mmHg 69%
11:00 +26°C° 0.3 mm 1 mps 751 mmHg 65%
12:00 +27°C° 0.4 mm 1 mps 751 mmHg 62%
13:00 +27°C° 0.4 mm 1 mps 751 mmHg 60%
14:00 +28°C° 0.4 mm 1 mps 751 mmHg 58%
15:00 +27°C° 0.5 mm 1 mps 751 mmHg 61%
16:00 +27°C° 0.5 mm 1 mps 750 mmHg 65%
17:00 +27°C° 0.5 mm 1 mps 750 mmHg 68%
18:00 +25°C° 0.2 mm 1 mps 751 mmHg 72%
19:00 +23°C° 0.2 mm 1 mps 751 mmHg 76%
20:00 +22°C° 0.2 mm 1 mps 751 mmHg 80%
21:00 +21°C° 0.1 mm 1 mps 751 mmHg 81%
22:00 +18°C° 0.1 mm 0 mps 751 mmHg 82%
23:00 +18°C° 0.1 mm 0 mps 751 mmHg 83%

19 July, Sunday

Time Temperature Precipitation Wind Pressure Humidity
00:00 +19°C° 0 mm 1 mps 751 mmHg 85%
01:00 +19°C° 0 mm 1 mps 751 mmHg 86%
02:00 +19°C° 0 mm 1 mps 751 mmHg 87%
03:00 +19°C° 0 mm 1 mps 751 mmHg 87%
04:00 +19°C° 0 mm 1 mps 751 mmHg 88%
05:00 +19°C° 0 mm 1 mps 751 mmHg 88%
06:00 +20°C° 0 mm 1 mps 751 mmHg 83%
07:00 +22°C° 0 mm 1 mps 751 mmHg 79%
08:00 +24°C° 0 mm 1 mps 751 mmHg 75%
09:00 +25°C° 0 mm 1 mps 751 mmHg 69%
10:00 +26°C° 0 mm 1 mps 751 mmHg 63%
11:00 +27°C° 0 mm 1 mps 750 mmHg 57%
12:00 +28°C° 0 mm 1 mps 750 mmHg 55%
13:00 +28°C° 0 mm 1 mps 750 mmHg 53%
14:00 +26°C° 0 mm 0 mps 750 mmHg 51%
15:00 +26°C° 0 mm 0 mps 749 mmHg 53%
16:00 +26°C° 0 mm 0 mps 749 mmHg 55%
17:00 +26°C° 0 mm 0 mps 749 mmHg 57%
18:00 +26°C° 0 mm 1 mps 749 mmHg 64%
19:00 +24°C° 0 mm 1 mps 748 mmHg 71%
20:00 +21°C° 0 mm 2 mps 748 mmHg 78%
21:00 +20°C° 0 mm 2 mps 748 mmHg 81%
22:00 +20°C° 0 mm 2 mps 748 mmHg 84%
23:00 +19°C° 0 mm 2 mps 748 mmHg 88%
Show more